Weather Roundup
Issued by NWS Chicago, IL

Home | Current Version | Previous Version | Text Only | Print | Product List | Glossary On
Versions: 1 2 3 4 5 6 7 8 9 10 11 12 13 14 15 16 17 18 19 20 21 22 23 24 25 26 27 28 29 30 31 32 33 34 35 36 37 38 39 40 41 42 43 44 45 46 47 48 49 50
000
NZUS59 KLOT 260808
HRRLOT

CHICAGO AREA WEATHER ROUNDUP
NATIONAL WEATHER SERVICE CHICAGO/ROMEOVILLE IL
300 AM CDT MON SEP 26 2016

NOTE: "FAIR" INDICATES FEW OR NO CLOUDS BELOW 12,000 FEET WITH NO
SIGNIFICANT WEATHER AND/OR OBSTRUCTIONS TO VISIBILITY.

* THESE STATIONS ARE NOT UNDER NWS QUALITY CONTROL. THEY ALSO MAY NOT
  REPORT WEATHER SUCH AS PRECIPITATION OR FOG.

ILZ005-006-012>014-019>023-260900-
NORTHEAST ILLINOIS

CITY           SKY/WX    TMP DP  RH WIND       PRES   REMARKS
OHARE          CLOUDY    62  52  69 W15       29.96S
MIDWAY         LGT RAIN  62  55  77 W12G18    29.97S
AURORA         CLOUDY    62  52  69 W10G20    29.99F
LANSING*       LGT RAIN  60  58  92 W7        29.98F
JOLIET*        LGT RAIN  62  56  79 W6        30.00S
WAUKEGAN       CLOUDY    61  53  75 VRB6      29.93S
DUPAGE AIRPORT CLOUDY    61  51  70 W13       29.97F
WHEELING       CLOUDY    62  52  69 W9        29.96F
KANKAKEE*      RAIN      58  57  96 W5        30.01F
MORRIS*        CLOUDY    61  54  77 W8        29.99F
LEWIS AIRPORT* CLOUDY    60  57  91 W8        29.99S
NORTHERLY ISL    N/A     62  55  77 W7          N/A
$$

WIZ051-052-058>065-066-070>072-260900-
SOUTHEAST WISCONSIN

CITY           SKY/WX    TMP DP  RH WIND       PRES   REMARKS
MILWAUKEE      CLOUDY    62  51  67 W15G24    29.92S
KENOSHA*       CLOUDY    60  53  77 W12       29.94S
RACINE*        CLOUDY    61  52  72 W13G20    29.94S
BURLINGTON     CLOUDY    58  51  78 W9        29.94F
WAUKESHA       CLOUDY    55  50  82 W15       29.94S
WEST BEND      CLOUDY    59  50  72 W12G20    29.90F
$$

INZ001>003-010>013-019-020-260900-
NORTHWEST INDIANA

CITY           SKY/WX    TMP DP  RH WIND       PRES   REMARKS
GARY*          LGT RAIN  62  58  86 W6        29.98S
MICHIGAN CITY* NOT AVBL
RENSSELAER*    NOT AVBL
VALPARAISO     LGT RAIN  64  52  64 W10G20    29.97R
$$

LMZ740>746-260900-
SOUTHERN LAKE MICHIGAN

STATION/POSITION TIME  SKY/WX   TEMP WIND        PRES    VSBY
                                AIR  DIR/SP/G
                 (UTC)          (F)  (DEG/KT/KT) (MB)    (MI)
HARRISON CRIB    0700            64  270/ 18/ 20   N/A
BURNHAM HARBOR   0800            62  240/  6/ 15   N/A
CALUMET HARBOR   0700            65  260/  6/ 18 1014.6R
BURNS HARBOR     0700            67  290/ 16/ 18 1014.9R
MICHIGAN CITY    0700            66  260/ 21/ 23   N/A
$$

ABBREVIATIONS USED IN REMARKS
   TC - TEMPERATURE IN CELSIUS
  WCI - WIND CHILL INDEX
   HX - HEAT INDEX
  VSB - VISIBILITY
$$



USA.gov is the U.S. government's official web portal to all federal, state and local government web resources and services.